FENGYUN 1C DEB, 31688

Orbit data source: Space-Track

FENGYUN 1C DEB, 31688 is space debris in SSO originally from a launch on Mon, 10 May 1999 UTC launched from the Taiyaun Space Center, China (TSC). Fengyun 1C debris stems from the Chinese weather satellite Fengyun-1C, which was intentionally destroyed by a Chinese anti-satellite missile in 2007. This event dramatically increased the amount of space debris, with thousands of trackable fragments posing hazards to satellites and human spaceflight. The Fengyun 1C debris cloud has become a focal point in discussions about space sustainability and the need for international regulations to prevent the creation of new debris.

Loading next visibility...
Identifier
31688, 1999-025CCW
Orbit
SSO
Country
Flag of CNCN / PRC
Related business
Manufacturer
Unknown
Mission
Spacecraft
Bus & Motor
Unknown
Mass
Unknown
Launch date (UTC)
1999-05-10 (27 years ago)
Launch vehicle
Unknown
Launch site
Taiyaun Space Center, China (TSC)
Object type
Payload
Rocket body
Debris
Shape & HBR
Unknown shape, 0.1 m
Radar Cross Section
Small (<0.1 m²)

Expand to show TLE details & history
Last TLE update: 1 day ago

TLE from 1 day ago
0 FENGYUN 1C DEB
1 31688U 99025CCW 26254.59146963  .00000353  00000-0  25119-3 0  9995
2 31688  98.9266 308.6587 0075401 103.8791 257.0778 14.02410279991028
Epoch: 2026-09-11T14:11Z
TLE epoch observation values (Epoch: 2026-09-11T14:11:42.976Z)
Latitude
0.00006°
Longitude
105.117°
Altitude
900.986 km
Speed
7.395 km/s
True Right ascension
20h 34m 38s
True Declination
0° 00' 00"
Sunlit
Object was in full shadow at epoch
Visualization orbit readout
Latitude
Unknown
Longitude
Unknown
Altitude
Unknown
Speed
Unknown
Apparent Right ascension
Unknown
Apparent Declination
Unknown
Sunlit
N/A
Visualization observer readout
Local Sidereal Time
10:39:26
Azimuth
Unknown
Elevation
Unknown
Doppler factor
Unknown
Orbital elements
Apogee altitude
937.4 km
Perigee altitude
827.906 km
Semi-major axis
7,260.79 km
Eccentricity
0.00754
Inclination
98.9266°
RAAN
308.6587°
Arg. of periapsis
103.8791°
True anomaly
256.23745°
Mean anomaly
257.0778°
Eccentric anomaly
256.65745°
Mean motion
3.50806 °/min
Orbital period
102.62 mins
BSTAR
0.00025119
Loading maneuver chart data...
Computing Atmospheric mass density...
Loading historical data...
Loading historical data...
Loading historical data...
Loading historical data...
Loading historical data...
Loading historical data...
Loading historical data...

Documentation

Showing up to 5 results
|